Year,Month,Day,Hour,Minute,Value (Times are PST for temperature in C)
2015,06,21,00,00,12.40
2015,06,21,00,01,12.30
2015,06,21,00,02,12.30
2015,06,21,00,03,12.40
2015,06,21,00,04,12.40
2015,06,21,00,05,12.40
2015,06,21,00,06,12.40
2015,06,21,00,07,12.40
2015,06,21,00,08,12.40
2015,06,21,00,09,12.40
2015,06,21,00,10,12.40
2015,06,21,00,11,12.40
2015,06,21,00,12,12.40
2015,06,21,00,13,12.40
2015,06,21,00,14,12.40
2015,06,21,00,15,12.50
2015,06,21,00,16,12.50
2015,06,21,00,17,12.50
2015,06,21,00,18,12.40
2015,06,21,00,19,12.40
2015,06,21,00,20,12.40
2015,06,21,00,21,12.40
2015,06,21,00,22,12.40
2015,06,21,00,23,12.30
2015,06,21,00,24,12.30
2015,06,21,00,25,12.30
2015,06,21,00,26,12.30
2015,06,21,00,27,12.30
2015,06,21,00,28,12.30
2015,06,21,00,29,12.30
2015,06,21,00,30,12.30
2015,06,21,00,31,12.30
2015,06,21,00,32,12.30
2015,06,21,00,33,12.30
2015,06,21,00,34,12.30
2015,06,21,00,35,12.30
2015,06,21,00,36,12.30
2015,06,21,00,37,12.30
2015,06,21,00,38,12.30
2015,06,21,00,39,12.30
2015,06,21,00,40,12.30
2015,06,21,00,41,12.20
2015,06,21,00,42,12.20
2015,06,21,00,43,12.20
2015,06,21,00,44,12.20
2015,06,21,00,45,12.20
2015,06,21,00,46,12.10
2015,06,21,00,47,12.10
2015,06,21,00,48,12.10
2015,06,21,00,49,12.10
2015,06,21,00,50,12.00
2015,06,21,00,51,12.00
2015,06,21,00,52,12.00
2015,06,21,00,53,12.00
2015,06,21,00,54,11.90
2015,06,21,00,55,11.90
2015,06,21,00,56,11.90
2015,06,21,00,57,11.80
2015,06,21,00,58,11.80
2015,06,21,00,59,11.80
2015,06,21,01,00,11.80
2015,06,21,01,01,11.80
2015,06,21,01,02,11.80
2015,06,21,01,03,11.80
2015,06,21,01,04,11.80
2015,06,21,01,05,11.80
2015,06,21,01,06,11.80
2015,06,21,01,07,11.80
2015,06,21,01,08,11.80
2015,06,21,01,09,11.70
2015,06,21,01,10,11.70
2015,06,21,01,11,11.70
2015,06,21,01,12,11.70
2015,06,21,01,13,11.70
2015,06,21,01,14,11.70
2015,06,21,01,15,11.70
2015,06,21,01,16,11.70
2015,06,21,01,17,11.70
2015,06,21,01,18,11.60
2015,06,21,01,19,11.60
2015,06,21,01,20,11.60
2015,06,21,01,21,11.60
2015,06,21,01,22,11.60
2015,06,21,01,23,11.60
2015,06,21,01,24,11.60
2015,06,21,01,25,11.60
2015,06,21,01,26,11.60
2015,06,21,01,27,11.60
2015,06,21,01,28,11.60
2015,06,21,01,29,11.60
2015,06,21,01,30,11.60
2015,06,21,01,31,11.60
2015,06,21,01,32,11.60
2015,06,21,01,33,11.60
2015,06,21,01,34,11.60
2015,06,21,01,35,11.60
2015,06,21,01,36,11.60
2015,06,21,01,37,11.60
2015,06,21,01,38,11.60
2015,06,21,01,39,11.60
2015,06,21,01,40,11.60
2015,06,21,01,41,11.50
2015,06,21,01,42,11.40
2015,06,21,01,43,11.40
2015,06,21,01,44,11.40
2015,06,21,01,45,11.40
2015,06,21,01,46,11.40
2015,06,21,01,47,11.40
2015,06,21,01,48,11.40
2015,06,21,01,49,11.40
2015,06,21,01,50,11.40
2015,06,21,01,51,11.40
2015,06,21,01,52,11.40
2015,06,21,01,53,11.50
2015,06,21,01,54,11.60
2015,06,21,01,55,11.60
2015,06,21,01,56,11.60
2015,06,21,01,57,11.60
2015,06,21,01,58,11.60
2015,06,21,01,59,11.60
2015,06,21,02,00,11.60
2015,06,21,02,01,11.60
2015,06,21,02,02,11.60
2015,06,21,02,03,11.70
2015,06,21,02,04,11.70
2015,06,21,02,05,11.70
2015,06,21,02,06,11.70
2015,06,21,02,07,11.80
2015,06,21,02,08,11.80
2015,06,21,02,09,11.80
2015,06,21,02,10,11.90
2015,06,21,02,11,11.90
2015,06,21,02,12,11.90
2015,06,21,02,13,12.00
2015,06,21,02,14,12.00
2015,06,21,02,15,12.10
2015,06,21,02,16,12.10
2015,06,21,02,17,12.10
2015,06,21,02,18,12.20
2015,06,21,02,19,12.20
2015,06,21,02,20,12.20
2015,06,21,02,21,12.20
2015,06,21,02,22,12.20
2015,06,21,02,23,12.20
2015,06,21,02,24,12.20
2015,06,21,02,25,12.30
2015,06,21,02,26,12.30
2015,06,21,02,27,12.30
2015,06,21,02,28,12.30
2015,06,21,02,29,12.20
2015,06,21,02,30,12.20
2015,06,21,02,31,12.20
2015,06,21,02,32,12.10
2015,06,21,02,33,12.10
2015,06,21,02,34,12.10
2015,06,21,02,35,12.00
2015,06,21,02,36,12.00
2015,06,21,02,37,12.00
2015,06,21,02,38,12.00
2015,06,21,02,39,11.90
2015,06,21,02,40,11.90
2015,06,21,02,41,11.90
2015,06,21,02,42,11.80
2015,06,21,02,43,11.80
2015,06,21,02,44,11.80
2015,06,21,02,45,11.80
2015,06,21,02,46,11.80
2015,06,21,02,47,11.80
2015,06,21,02,48,11.80
2015,06,21,02,49,11.80
2015,06,21,02,50,11.80
2015,06,21,02,51,11.80
2015,06,21,02,52,11.70
2015,06,21,02,53,11.70
2015,06,21,02,54,11.60
2015,06,21,02,55,11.60
2015,06,21,02,56,11.60
2015,06,21,02,57,11.60
2015,06,21,02,58,11.60
2015,06,21,02,59,11.60
2015,06,21,03,00,11.60
2015,06,21,03,01,11.50
2015,06,21,03,02,11.40
2015,06,21,03,03,11.40
2015,06,21,03,04,11.40
2015,06,21,03,05,11.40
2015,06,21,03,06,11.40
2015,06,21,03,07,11.40
2015,06,21,03,08,11.40
2015,06,21,03,09,11.40
2015,06,21,03,10,11.40
2015,06,21,03,11,11.40
2015,06,21,03,12,11.40
2015,06,21,03,13,11.40
2015,06,21,03,14,11.40
2015,06,21,03,15,11.40
2015,06,21,03,16,11.40
2015,06,21,03,17,11.40
2015,06,21,03,18,11.40
2015,06,21,03,19,11.40
2015,06,21,03,20,11.40
2015,06,21,03,21,11.40
2015,06,21,03,22,11.40
2015,06,21,03,23,11.40
2015,06,21,03,24,11.40
2015,06,21,03,25,11.40
2015,06,21,03,26,11.40
2015,06,21,03,27,11.40
2015,06,21,03,28,11.40
2015,06,21,03,29,11.40
2015,06,21,03,30,11.40
2015,06,21,03,31,11.40
2015,06,21,03,32,11.40
2015,06,21,03,33,11.40
2015,06,21,03,34,11.30
2015,06,21,03,35,11.30
2015,06,21,03,36,11.30
2015,06,21,03,37,11.30
2015,06,21,03,38,11.30
2015,06,21,03,39,11.30
2015,06,21,03,40,11.30
2015,06,21,03,41,11.30
2015,06,21,03,42,11.30
2015,06,21,03,43,11.30
2015,06,21,03,44,11.30
2015,06,21,03,45,11.30
2015,06,21,03,46,11.30
2015,06,21,03,47,11.30
2015,06,21,03,48,11.30
2015,06,21,03,49,11.30
2015,06,21,03,50,11.30
2015,06,21,03,51,11.30
2015,06,21,03,52,11.30
2015,06,21,03,53,11.30
2015,06,21,03,54,11.30
2015,06,21,03,55,11.30
2015,06,21,03,56,11.30
2015,06,21,03,57,11.30
2015,06,21,03,58,11.30
2015,06,21,03,59,11.30
2015,06,21,04,00,11.30
2015,06,21,04,01,11.30
2015,06,21,04,02,11.30
2015,06,21,04,03,11.30
2015,06,21,04,04,11.40
2015,06,21,04,05,11.40
2015,06,21,04,06,11.40
2015,06,21,04,07,11.40
2015,06,21,04,08,11.40
2015,06,21,04,09,11.40
2015,06,21,04,10,11.40
2015,06,21,04,11,11.40
2015,06,21,04,12,11.40
2015,06,21,04,13,11.40
2015,06,21,04,14,11.40
2015,06,21,04,15,11.40
2015,06,21,04,16,11.40
2015,06,21,04,17,11.40
2015,06,21,04,18,11.40
2015,06,21,04,19,11.30
2015,06,21,04,20,11.30
2015,06,21,04,21,11.30
2015,06,21,04,22,11.30
2015,06,21,04,23,11.30
2015,06,21,04,24,11.30
2015,06,21,04,25,11.30
2015,06,21,04,26,11.30
2015,06,21,04,27,11.30
2015,06,21,04,28,11.30
2015,06,21,04,29,11.20
2015,06,21,04,30,11.20
2015,06,21,04,31,11.20
2015,06,21,04,32,11.10
2015,06,21,04,33,11.10
2015,06,21,04,34,11.10
2015,06,21,04,35,11.10
2015,06,21,04,36,11.10
2015,06,21,04,37,11.10
2015,06,21,04,38,11.10
2015,06,21,04,39,11.10
2015,06,21,04,40,11.10
2015,06,21,04,41,11.10
2015,06,21,04,42,11.10
2015,06,21,04,43,11.10
2015,06,21,04,44,11.10
2015,06,21,04,45,11.10
2015,06,21,04,46,11.10
2015,06,21,04,47,11.10
2015,06,21,04,48,11.10
2015,06,21,04,49,11.10
2015,06,21,04,50,11.10
2015,06,21,04,51,11.10
2015,06,21,04,52,11.10
2015,06,21,04,53,11.10
2015,06,21,04,54,11.10
2015,06,21,04,55,11.00
2015,06,21,04,56,10.90
2015,06,21,04,57,10.90
2015,06,21,04,58,10.90
2015,06,21,04,59,10.90
2015,06,21,05,00,10.90
2015,06,21,05,01,10.90
2015,06,21,05,02,10.90
2015,06,21,05,03,10.90
2015,06,21,05,04,10.90
2015,06,21,05,05,10.90
2015,06,21,05,06,10.90
2015,06,21,05,07,10.90
2015,06,21,05,08,10.90
2015,06,21,05,09,10.90
2015,06,21,05,10,10.90
2015,06,21,05,11,10.90
2015,06,21,05,12,11.00
2015,06,21,05,13,11.10
2015,06,21,05,14,11.10
2015,06,21,05,15,11.10
2015,06,21,05,16,11.10
2015,06,21,05,17,11.10
2015,06,21,05,18,11.10
2015,06,21,05,19,11.10
2015,06,21,05,20,11.10
2015,06,21,05,21,11.10
2015,06,21,05,22,11.20
2015,06,21,05,23,11.20
2015,06,21,05,24,11.20
2015,06,21,05,25,11.20
2015,06,21,05,26,11.20
2015,06,21,05,27,11.30
2015,06,21,05,28,11.30
2015,06,21,05,29,11.30
2015,06,21,05,30,11.30
2015,06,21,05,31,11.40
2015,06,21,05,32,11.40
2015,06,21,05,33,11.40
2015,06,21,05,34,11.40
2015,06,21,05,35,11.40
2015,06,21,05,36,11.40
2015,06,21,05,37,11.40
2015,06,21,05,38,11.60
2015,06,21,05,39,11.60
2015,06,21,05,40,11.60
2015,06,21,05,41,11.60
2015,06,21,05,42,11.60
2015,06,21,05,43,11.60
2015,06,21,05,44,11.60
2015,06,21,05,45,11.70
2015,06,21,05,46,11.70
2015,06,21,05,47,11.80
2015,06,21,05,48,11.80
2015,06,21,05,49,11.80
2015,06,21,05,50,11.80
2015,06,21,05,51,11.80
2015,06,21,05,52,11.80
2015,06,21,05,53,11.90
2015,06,21,05,54,11.90
2015,06,21,05,55,11.90
2015,06,21,05,56,12.00
2015,06,21,05,57,12.00
2015,06,21,05,58,12.00
2015,06,21,05,59,12.10
2015,06,21,06,00,12.10
2015,06,21,06,01,12.20
2015,06,21,06,02,12.30
2015,06,21,06,03,12.40
2015,06,21,06,04,12.50
2015,06,21,06,05,12.70
2015,06,21,06,06,12.80
2015,06,21,06,07,12.90
2015,06,21,06,08,13.00
2015,06,21,06,09,13.10
2015,06,21,06,10,13.30
2015,06,21,06,11,13.40
2015,06,21,06,12,13.50
2015,06,21,06,13,13.60
2015,06,21,06,14,13.70
2015,06,21,06,15,13.80
2015,06,21,06,16,13.90
2015,06,21,06,17,14.00
2015,06,21,06,18,14.10
2015,06,21,06,19,14.20
2015,06,21,06,20,14.20
2015,06,21,06,21,14.30
2015,06,21,06,22,14.40
2015,06,21,06,23,14.50
2015,06,21,06,24,14.50
2015,06,21,06,25,14.60
2015,06,21,06,26,14.60
2015,06,21,06,27,14.70
2015,06,21,06,28,14.70
2015,06,21,06,29,14.70
2015,06,21,06,30,14.80
2015,06,21,06,31,14.80
2015,06,21,06,32,14.80
2015,06,21,06,33,14.80
2015,06,21,06,34,14.90
2015,06,21,06,35,14.90
2015,06,21,06,36,14.90
2015,06,21,06,37,15.00
2015,06,21,06,38,15.00
2015,06,21,06,39,15.00
2015,06,21,06,40,15.00
2015,06,21,06,41,15.10
2015,06,21,06,42,15.10
2015,06,21,06,43,15.10
2015,06,21,06,44,15.10
2015,06,21,06,45,15.10
2015,06,21,06,46,15.20
2015,06,21,06,47,15.20
2015,06,21,06,48,15.30
2015,06,21,06,49,15.30
2015,06,21,06,50,15.30
2015,06,21,06,51,15.30
2015,06,21,06,52,15.30
2015,06,21,06,53,15.40
2015,06,21,06,54,15.40
2015,06,21,06,55,15.50
2015,06,21,06,56,15.50
2015,06,21,06,57,15.50
2015,06,21,06,58,15.60
2015,06,21,06,59,15.60
2015,06,21,07,00,15.60
2015,06,21,07,01,15.60
2015,06,21,07,02,15.60
2015,06,21,07,03,15.70
2015,06,21,07,04,15.70
2015,06,21,07,05,15.70
2015,06,21,07,06,15.70
2015,06,21,07,07,15.70
2015,06,21,07,08,15.80
2015,06,21,07,09,15.80
2015,06,21,07,10,15.80
2015,06,21,07,11,15.90
2015,06,21,07,12,15.90
2015,06,21,07,13,16.00
2015,06,21,07,14,16.10
2015,06,21,07,15,16.10
2015,06,21,07,16,16.10
2015,06,21,07,17,16.10
2015,06,21,07,18,16.10
2015,06,21,07,19,16.10
2015,06,21,07,20,16.10
2015,06,21,07,21,16.10
2015,06,21,07,22,16.10
2015,06,21,07,23,16.10
2015,06,21,07,24,16.10
2015,06,21,07,25,16.10
2015,06,21,07,26,16.10
2015,06,21,07,27,16.10
2015,06,21,07,28,16.10
2015,06,21,07,29,16.10
2015,06,21,07,30,16.20
2015,06,21,07,31,16.10
2015,06,21,07,32,16.20
2015,06,21,07,33,16.20
2015,06,21,07,34,16.20
2015,06,21,07,35,16.20
2015,06,21,07,36,16.20
2015,06,21,07,37,16.20
2015,06,21,07,38,16.20
2015,06,21,07,39,16.20
2015,06,21,07,40,16.30
2015,06,21,07,41,16.20
2015,06,21,07,42,16.20
2015,06,21,07,43,16.20
2015,06,21,07,44,16.20
2015,06,21,07,45,16.20
2015,06,21,07,46,16.20
2015,06,21,07,47,16.30
2015,06,21,07,48,16.30
2015,06,21,07,49,16.30
2015,06,21,07,50,16.30
2015,06,21,07,51,16.30
2015,06,21,07,52,16.30
2015,06,21,07,53,16.30
2015,06,21,07,54,16.30
2015,06,21,07,55,16.30
2015,06,21,07,56,16.30
2015,06,21,07,57,16.40
2015,06,21,07,58,16.40
2015,06,21,07,59,16.40
2015,06,21,08,00,16.40
2015,06,21,08,01,16.40
2015,06,21,08,02,16.40
2015,06,21,08,03,16.40
2015,06,21,08,04,16.50
2015,06,21,08,05,16.60
2015,06,21,08,06,16.60
2015,06,21,08,07,16.60
2015,06,21,08,08,16.60
2015,06,21,08,09,16.60
2015,06,21,08,10,16.70
2015,06,21,08,11,16.70
2015,06,21,08,12,16.70
2015,06,21,08,13,16.70
2015,06,21,08,14,16.70
2015,06,21,08,15,16.70
2015,06,21,08,16,16.70
2015,06,21,08,17,16.70
2015,06,21,08,18,16.80
2015,06,21,08,19,16.80
2015,06,21,08,20,16.80
2015,06,21,08,21,16.80
2015,06,21,08,22,16.70
2015,06,21,08,23,16.70
2015,06,21,08,24,16.80
2015,06,21,08,25,16.80
2015,06,21,08,26,16.80
2015,06,21,08,27,16.80
2015,06,21,08,28,16.90
2015,06,21,08,29,16.90
2015,06,21,08,30,16.90
2015,06,21,08,31,17.00
2015,06,21,08,32,17.00
2015,06,21,08,33,17.10
2015,06,21,08,34,17.10
2015,06,21,08,35,17.20
2015,06,21,08,36,17.30
2015,06,21,08,37,17.30
2015,06,21,08,38,17.40
2015,06,21,08,39,17.40
2015,06,21,08,40,17.50
2015,06,21,08,41,17.50
2015,06,21,08,42,17.60
2015,06,21,08,43,17.60
2015,06,21,08,44,17.60
2015,06,21,08,45,17.70
2015,06,21,08,46,17.70
2015,06,21,08,47,17.80
2015,06,21,08,48,17.80
2015,06,21,08,49,17.90
2015,06,21,08,50,17.90
2015,06,21,08,51,17.90
2015,06,21,08,52,17.90
2015,06,21,08,53,17.90
2015,06,21,08,54,17.90
2015,06,21,08,55,18.10
2015,06,21,08,56,18.10
2015,06,21,08,57,18.20
2015,06,21,08,58,18.20
2015,06,21,08,59,18.30
2015,06,21,09,00,18.30
2015,06,21,09,01,18.30
2015,06,21,09,02,18.40
2015,06,21,09,03,18.50
2015,06,21,09,04,18.60
2015,06,21,09,05,18.60
2015,06,21,09,06,18.70
2015,06,21,09,07,18.90
2015,06,21,09,08,18.90
2015,06,21,09,09,18.90
2015,06,21,09,10,18.90
2015,06,21,09,11,18.90
2015,06,21,09,12,18.90
2015,06,21,09,13,18.80
2015,06,21,09,14,18.80
2015,06,21,09,15,18.90
2015,06,21,09,16,18.90
2015,06,21,09,17,18.90
2015,06,21,09,18,18.90
2015,06,21,09,19,18.90
2015,06,21,09,20,19.10
2015,06,21,09,21,19.10
2015,06,21,09,22,19.10
2015,06,21,09,23,19.10
2015,06,21,09,24,19.10
2015,06,21,09,25,19.10
2015,06,21,09,26,19.20
2015,06,21,09,27,19.30
2015,06,21,09,28,19.30
2015,06,21,09,29,19.30
2015,06,21,09,30,19.20
2015,06,21,09,31,19.10
2015,06,21,09,32,19.00
2015,06,21,09,33,18.90
2015,06,21,09,34,18.90
2015,06,21,09,35,18.90
2015,06,21,09,36,18.80
2015,06,21,09,37,18.80
2015,06,21,09,38,18.70
2015,06,21,09,39,18.70
2015,06,21,09,40,18.70
2015,06,21,09,41,18.70
2015,06,21,09,42,18.70
2015,06,21,09,43,18.70
2015,06,21,09,44,18.80
2015,06,21,09,45,18.90
2015,06,21,09,46,19.00
2015,06,21,09,47,19.10
2015,06,21,09,48,19.20
2015,06,21,09,49,19.20
2015,06,21,09,50,19.20
2015,06,21,09,51,19.10
2015,06,21,09,52,19.10
2015,06,21,09,53,19.10
2015,06,21,09,54,19.20
2015,06,21,09,55,19.20
2015,06,21,09,56,19.20
2015,06,21,09,57,19.30
2015,06,21,09,58,19.20
2015,06,21,09,59,19.30
2015,06,21,10,00,19.30
2015,06,21,10,01,19.40
2015,06,21,10,02,19.50
2015,06,21,10,03,19.40
2015,06,21,10,04,19.50
2015,06,21,10,05,19.60
2015,06,21,10,06,19.70
2015,06,21,10,07,19.80
2015,06,21,10,08,19.80
2015,06,21,10,09,19.90
2015,06,21,10,10,19.90
2015,06,21,10,11,19.90
2015,06,21,10,12,19.80
2015,06,21,10,13,19.80
2015,06,21,10,14,19.80
2015,06,21,10,15,19.70
2015,06,21,10,16,19.60
2015,06,21,10,17,19.60
2015,06,21,10,18,19.60
2015,06,21,10,19,19.70
2015,06,21,10,20,19.70
2015,06,21,10,21,19.80
2015,06,21,10,22,19.80
2015,06,21,10,23,19.90
2015,06,21,10,24,20.00
2015,06,21,10,25,20.10
2015,06,21,10,26,20.10
2015,06,21,10,27,20.10
2015,06,21,10,28,20.10
2015,06,21,10,29,20.00
2015,06,21,10,30,20.00
2015,06,21,10,31,20.10
2015,06,21,10,32,20.20
2015,06,21,10,33,20.20
2015,06,21,10,34,20.10
2015,06,21,10,35,20.10
2015,06,21,10,36,20.20
2015,06,21,10,37,20.20
2015,06,21,10,38,20.20
2015,06,21,10,39,20.20
2015,06,21,10,40,20.20
2015,06,21,10,41,20.20
2015,06,21,10,42,20.30
2015,06,21,10,43,20.30
2015,06,21,10,44,20.30
2015,06,21,10,45,20.30
2015,06,21,10,46,20.30
2015,06,21,10,47,20.30
2015,06,21,10,48,20.30
2015,06,21,10,49,20.30
2015,06,21,10,50,20.30
2015,06,21,10,51,20.40
2015,06,21,10,52,20.50
2015,06,21,10,53,20.60
2015,06,21,10,54,20.70
2015,06,21,10,55,20.70
2015,06,21,10,56,20.80
2015,06,21,10,57,20.80
2015,06,21,10,58,20.90
2015,06,21,10,59,20.90
2015,06,21,11,00,20.80
2015,06,21,11,01,20.80
2015,06,21,11,02,20.90
2015,06,21,11,03,21.00
2015,06,21,11,04,21.10
2015,06,21,11,05,21.20
2015,06,21,11,06,21.20
2015,06,21,11,07,21.30
2015,06,21,11,08,21.20
2015,06,21,11,09,21.20
2015,06,21,11,10,21.10
2015,06,21,11,11,21.00
2015,06,21,11,12,20.80
2015,06,21,11,13,20.60
2015,06,21,11,14,20.50
2015,06,21,11,15,20.40
2015,06,21,11,16,20.30
2015,06,21,11,17,20.20
2015,06,21,11,18,20.10
2015,06,21,11,19,20.10
2015,06,21,11,20,20.10
2015,06,21,11,21,20.10
2015,06,21,11,22,20.10
2015,06,21,11,23,20.20
2015,06,21,11,24,20.20
2015,06,21,11,25,20.20
2015,06,21,11,26,20.20
2015,06,21,11,27,20.20
2015,06,21,11,28,20.20
2015,06,21,11,29,20.10
2015,06,21,11,30,20.00
2015,06,21,11,31,19.90
2015,06,21,11,32,20.00
2015,06,21,11,33,20.10
2015,06,21,11,34,20.20
2015,06,21,11,35,20.30
2015,06,21,11,36,20.50
2015,06,21,11,37,20.50
2015,06,21,11,38,20.60
2015,06,21,11,39,20.60
2015,06,21,11,40,20.60
2015,06,21,11,41,20.60
2015,06,21,11,42,20.60
2015,06,21,11,43,20.50
2015,06,21,11,44,20.60
2015,06,21,11,45,20.70
2015,06,21,11,46,20.80
2015,06,21,11,47,20.90
2015,06,21,11,48,21.00
2015,06,21,11,49,21.10
2015,06,21,11,50,21.30
2015,06,21,11,51,21.30
2015,06,21,11,52,21.50
2015,06,21,11,53,21.70
2015,06,21,11,54,21.80
2015,06,21,11,55,21.90
2015,06,21,11,56,22.00
2015,06,21,11,57,22.00
2015,06,21,11,58,22.00
2015,06,21,11,59,22.20
2015,06,21,12,00,22.30
2015,06,21,12,01,22.30
2015,06,21,12,02,22.20
2015,06,21,12,03,22.20
2015,06,21,12,04,22.20
2015,06,21,12,05,22.20
2015,06,21,12,06,22.10
2015,06,21,12,07,22.00
2015,06,21,12,08,22.00
2015,06,21,12,09,21.90
2015,06,21,12,10,21.90
2015,06,21,12,11,22.00
2015,06,21,12,12,22.10
2015,06,21,12,13,22.10
2015,06,21,12,14,22.10
2015,06,21,12,15,22.20
2015,06,21,12,16,22.30
2015,06,21,12,17,22.30
2015,06,21,12,18,22.40
2015,06,21,12,19,22.30
2015,06,21,12,20,22.30
2015,06,21,12,21,22.20
2015,06,21,12,22,22.20
2015,06,21,12,23,22.10
2015,06,21,12,24,21.80
2015,06,21,12,25,21.50
2015,06,21,12,26,21.30
2015,06,21,12,27,21.30
2015,06,21,12,28,21.30
2015,06,21,12,29,21.30
2015,06,21,12,30,21.40
2015,06,21,12,31,21.40
2015,06,21,12,32,21.40
2015,06,21,12,33,21.30
2015,06,21,12,34,21.00
2015,06,21,12,35,20.80
2015,06,21,12,36,20.50
2015,06,21,12,37,20.40
2015,06,21,12,38,20.40
2015,06,21,12,39,20.40
2015,06,21,12,40,20.50
2015,06,21,12,41,20.60
2015,06,21,12,42,20.60
2015,06,21,12,43,20.70
2015,06,21,12,44,20.80
2015,06,21,12,45,20.90
2015,06,21,12,46,21.10
2015,06,21,12,47,21.20
2015,06,21,12,48,21.30
2015,06,21,12,49,21.40
2015,06,21,12,50,21.60
2015,06,21,12,51,21.60
2015,06,21,12,52,21.60
2015,06,21,12,53,21.60
2015,06,21,12,54,21.50
2015,06,21,12,55,21.40
2015,06,21,12,56,21.30
2015,06,21,12,57,21.30
2015,06,21,12,58,21.20
2015,06,21,12,59,20.90
2015,06,21,13,00,20.80
2015,06,21,13,01,20.60
2015,06,21,13,02,20.50
2015,06,21,13,03,20.30
2015,06,21,13,04,20.20
2015,06,21,13,05,20.20
2015,06,21,13,06,20.20
2015,06,21,13,07,20.20
2015,06,21,13,08,20.30
2015,06,21,13,09,20.40
2015,06,21,13,10,20.50
2015,06,21,13,11,20.60
2015,06,21,13,12,20.50
2015,06,21,13,13,20.50
2015,06,21,13,14,20.60
2015,06,21,13,15,20.60
2015,06,21,13,16,20.70
2015,06,21,13,17,20.70
2015,06,21,13,18,20.80
2015,06,21,13,19,20.90
2015,06,21,13,20,21.00
2015,06,21,13,21,21.00
2015,06,21,13,22,21.10
2015,06,21,13,23,21.10
2015,06,21,13,24,21.20
2015,06,21,13,25,21.30
2015,06,21,13,26,21.40
2015,06,21,13,27,21.50
2015,06,21,13,28,21.70
2015,06,21,13,29,21.90
2015,06,21,13,30,22.10
2015,06,21,13,31,22.20
2015,06,21,13,32,22.20
2015,06,21,13,33,22.10
2015,06,21,13,34,22.00
2015,06,21,13,35,22.00
2015,06,21,13,36,21.70
2015,06,21,13,37,21.60
2015,06,21,13,38,21.60
2015,06,21,13,39,21.50
2015,06,21,13,40,21.50
2015,06,21,13,41,21.60
2015,06,21,13,42,21.60
2015,06,21,13,43,21.60
2015,06,21,13,44,21.70
2015,06,21,13,45,21.70
2015,06,21,13,46,21.80
2015,06,21,13,47,21.80
2015,06,21,13,48,21.80
2015,06,21,13,49,21.90
2015,06,21,13,50,22.00
2015,06,21,13,51,22.00
2015,06,21,13,52,22.00
2015,06,21,13,53,22.10
2015,06,21,13,54,22.20
2015,06,21,13,55,22.20
2015,06,21,13,56,22.30
2015,06,21,13,57,22.40
2015,06,21,13,58,22.40
2015,06,21,13,59,22.40
2015,06,21,14,00,22.40
2015,06,21,14,01,22.30
2015,06,21,14,02,22.20
2015,06,21,14,03,22.10
2015,06,21,14,04,22.10
2015,06,21,14,05,22.00
2015,06,21,14,06,22.00
2015,06,21,14,07,22.00
2015,06,21,14,08,22.00
2015,06,21,14,09,22.00
2015,06,21,14,10,22.00
2015,06,21,14,11,22.10
2015,06,21,14,12,22.00
2015,06,21,14,13,21.80
2015,06,21,14,14,21.80
2015,06,21,14,15,21.70
2015,06,21,14,16,21.70
2015,06,21,14,17,21.70
2015,06,21,14,18,21.70
2015,06,21,14,19,21.70
2015,06,21,14,20,21.60
2015,06,21,14,21,21.60
2015,06,21,14,22,21.60
2015,06,21,14,23,21.60
2015,06,21,14,24,21.40
2015,06,21,14,25,21.40
2015,06,21,14,26,21.40
2015,06,21,14,27,21.50
2015,06,21,14,28,21.60
2015,06,21,14,29,21.70
2015,06,21,14,30,21.80
2015,06,21,14,31,21.80
2015,06,21,14,32,21.90
2015,06,21,14,33,21.90
2015,06,21,14,34,21.90
2015,06,21,14,35,22.00
2015,06,21,14,36,22.00
2015,06,21,14,37,22.10
2015,06,21,14,38,22.20
2015,06,21,14,39,22.30
2015,06,21,14,40,22.40
2015,06,21,14,41,22.50
2015,06,21,14,42,22.60
2015,06,21,14,43,22.80
2015,06,21,14,44,22.90
2015,06,21,14,45,22.90
2015,06,21,14,46,23.00
2015,06,21,14,47,23.10
2015,06,21,14,48,23.20
2015,06,21,14,49,23.10
2015,06,21,14,50,23.10
2015,06,21,14,51,23.00
2015,06,21,14,52,22.90
2015,06,21,14,53,22.70
2015,06,21,14,54,22.60
2015,06,21,14,55,22.40
2015,06,21,14,56,22.30
2015,06,21,14,57,22.20
2015,06,21,14,58,22.10
2015,06,21,14,59,22.00
2015,06,21,15,00,21.80
2015,06,21,15,01,21.70
2015,06,21,15,02,21.70
2015,06,21,15,03,21.60
2015,06,21,15,04,21.50
2015,06,21,15,05,21.40
2015,06,21,15,06,21.30
2015,06,21,15,07,21.30
2015,06,21,15,08,21.30
2015,06,21,15,09,21.30
2015,06,21,15,10,21.30
2015,06,21,15,11,21.30
2015,06,21,15,12,21.30
2015,06,21,15,13,21.30
2015,06,21,15,14,21.30
2015,06,21,15,15,21.30
2015,06,21,15,16,21.30
2015,06,21,15,17,21.30
2015,06,21,15,18,21.30
2015,06,21,15,19,21.20
2015,06,21,15,20,21.20
2015,06,21,15,21,21.20
2015,06,21,15,22,21.20
2015,06,21,15,23,21.20
2015,06,21,15,24,21.20
2015,06,21,15,25,21.20
2015,06,21,15,26,21.30
2015,06,21,15,27,21.30
2015,06,21,15,28,21.30
2015,06,21,15,29,21.30
2015,06,21,15,30,21.40
2015,06,21,15,31,21.40
2015,06,21,15,32,21.40
2015,06,21,15,33,21.40
2015,06,21,15,34,21.50
2015,06,21,15,35,21.60
2015,06,21,15,36,21.60
2015,06,21,15,37,21.60
2015,06,21,15,38,21.60
2015,06,21,15,39,21.80
2015,06,21,15,40,21.90
2015,06,21,15,41,22.00
2015,06,21,15,42,22.10
2015,06,21,15,43,22.20
2015,06,21,15,44,22.30
2015,06,21,15,45,22.30
2015,06,21,15,46,22.40
2015,06,21,15,47,22.50
2015,06,21,15,48,22.60
2015,06,21,15,49,22.70
2015,06,21,15,50,22.70
2015,06,21,15,51,22.80
2015,06,21,15,52,22.90
2015,06,21,15,53,22.90
2015,06,21,15,54,22.90
2015,06,21,15,55,22.90
2015,06,21,15,56,22.90
2015,06,21,15,57,22.90
2015,06,21,15,58,22.90
2015,06,21,15,59,22.80
2015,06,21,16,00,22.70
2015,06,21,16,01,22.60
2015,06,21,16,02,22.50
2015,06,21,16,03,22.30
2015,06,21,16,04,22.20
2015,06,21,16,05,22.20
2015,06,21,16,06,22.20
2015,06,21,16,07,22.10
2015,06,21,16,08,22.10
2015,06,21,16,09,22.20
2015,06,21,16,10,22.20
2015,06,21,16,11,22.20
2015,06,21,16,12,22.20
2015,06,21,16,13,22.10
2015,06,21,16,14,22.10
2015,06,21,16,15,22.10
2015,06,21,16,16,22.10
2015,06,21,16,17,22.10
2015,06,21,16,18,22.20
2015,06,21,16,19,22.20
2015,06,21,16,20,22.30
2015,06,21,16,21,22.30
2015,06,21,16,22,22.30
2015,06,21,16,23,22.30
2015,06,21,16,24,22.30
2015,06,21,16,25,22.30
2015,06,21,16,26,22.30
2015,06,21,16,27,22.40
2015,06,21,16,28,22.30
2015,06,21,16,29,22.30
2015,06,21,16,30,22.30
2015,06,21,16,31,22.30
2015,06,21,16,32,22.40
2015,06,21,16,33,22.40
2015,06,21,16,34,22.40
2015,06,21,16,35,22.40
2015,06,21,16,36,22.40
2015,06,21,16,37,22.30
2015,06,21,16,38,22.40
2015,06,21,16,39,22.60
2015,06,21,16,40,22.70
2015,06,21,16,41,22.80
2015,06,21,16,42,22.80
2015,06,21,16,43,22.90
2015,06,21,16,44,22.90
2015,06,21,16,45,22.70
2015,06,21,16,46,22.70
2015,06,21,16,47,22.70
2015,06,21,16,48,22.60
2015,06,21,16,49,22.60
2015,06,21,16,50,22.50
2015,06,21,16,51,22.40
2015,06,21,16,52,22.20
2015,06,21,16,53,22.10
2015,06,21,16,54,21.90
2015,06,21,16,55,21.70
2015,06,21,16,56,21.80
2015,06,21,16,57,21.90
2015,06,21,16,58,22.00
2015,06,21,16,59,22.10
2015,06,21,17,00,22.20
2015,06,21,17,01,22.40
2015,06,21,17,02,22.60
2015,06,21,17,03,22.70
2015,06,21,17,04,22.70
2015,06,21,17,05,22.80
2015,06,21,17,06,22.80
2015,06,21,17,07,22.70
2015,06,21,17,08,22.70
2015,06,21,17,09,22.60
2015,06,21,17,10,22.50
2015,06,21,17,11,22.40
2015,06,21,17,12,22.40
2015,06,21,17,13,22.50
2015,06,21,17,14,22.60
2015,06,21,17,15,22.70
2015,06,21,17,16,22.90
2015,06,21,17,17,23.00
2015,06,21,17,18,23.20
2015,06,21,17,19,23.40